This is the latest recevied weather packets stored in our database for station/object N8VDS-10. If no packets are shown the sender has not sent any weather packets the latest 10 day(s).
| Time | Temp. | Humidity | Pressure | Rain* | Wind** | Luminosity | Snow |
|---|---|---|---|---|---|---|---|
| 1778001443 | 11.67° C | 69% | 1009.9 hPa | 0 mm | - | 390 W/m² | - |
| 1778001141 | 11.11° C | 71% | 1010.1 hPa | 0 mm | - | 680 W/m² | - |
| 1778000837 | 11.11° C | 71% | 1010.3 hPa | 0 mm | - | 331 W/m² | - |
| 1778000535 | 11.11° C | 72% | 1010 hPa | 0 mm | - | 344 W/m² | - |
| 1778000230 | 11.11° C | 74% | 1009.9 hPa | 0 mm | - | 269 W/m² | - |
| 1777999926 | 11.11° C | 74% | 1010.2 hPa | 0 mm | - | 289 W/m² | - |
| 1777999621 | 10.56° C | 75% | 1010.1 hPa | 0 mm | - | 281 W/m² | - |
| 1777999319 | 10.56° C | 75% | 1010.4 hPa | 0 mm | - | 334 W/m² | - |
| 1777999017 | 10° C | 76% | 1010.5 hPa | 0 mm | - | 359 W/m² | - |
| 1777998715 | 10° C | 75% | 1010.3 hPa | 0 mm | - | 227 W/m² | - |
| 1777998412 | 10° C | 76% | 1010.5 hPa | 0 mm | - | 172 W/m² | - |
| 1777998109 | 10° C | 76% | 1010.5 hPa | 0 mm | - | 184 W/m² | - |
| 1777997806 | 10° C | 77% | 1010.2 hPa | 0 mm | - | 135 W/m² | - |
| 1777997503 | 10° C | 78% | 1010.3 hPa | 0 mm | - | 159 W/m² | - |
| 1777997201 | 9.44° C | 77% | 1010.2 hPa | 0 mm | - | 157 W/m² | - |
| 1777996898 | 10° C | 78% | 1010.3 hPa | 0 mm | - | 166 W/m² | - |
| 1777996594 | 9.44° C | 79% | 1010.2 hPa | 0 mm | - | 188 W/m² | - |
| 1777996291 | 9.44° C | 80% | 1010.5 hPa | 0 mm | - | 162 W/m² | - |
| 1777995987 | 9.44° C | 81% | 1010.3 hPa | 0 mm | - | 148 W/m² | - |
| 1777995683 | 9.44° C | 81% | 1010.3 hPa | 0 mm | - | 148 W/m² | - |
| 1777995381 | 8.89° C | 82% | 1010.3 hPa | 0 mm | - | 146 W/m² | - |
| 1777995078 | 8.89° C | 81% | 1010.2 hPa | 0 mm | - | 132 W/m² | - |
| 1777994774 | 8.89° C | 82% | 1010.3 hPa | 0 mm | - | 142 W/m² | - |
| 1777994470 | 8.33° C | 82% | 1010.3 hPa | 0 mm | - | 108 W/m² | - |
| 1777994166 | 8.33° C | 82% | 1010.4 hPa | 0 mm | - | 75 W/m² | - |
* Rain latest hour (hover to see other rain measurements)
** Current wind speed in m/s (hover to see current wind gust speed)